TimeCDT,TemperatureF,Dew PointF,Humidity,Sea Level PressureIn,VisibilityMPH,Wind Direction,Wind SpeedMPH,Gust SpeedMPH,PrecipitationIn,Events,Conditions,WindDirDegrees,DateUTC
12:53 AM,55.9,50.0,80,29.69,10.0,SE,3.5,-,N/A,,Clear,140,2013-03-11 05:53:00
1:53 AM,55.9,50.0,80,29.67,10.0,SE,8.1,-,N/A,,Clear,140,2013-03-11 06:53:00
2:53 AM,57.0,51.1,81,29.65,10.0,SE,8.1,-,N/A,,Clear,140,2013-03-11 07:53:00
3:53 AM,57.0,51.1,81,29.62,10.0,SSE,5.8,-,N/A,,Clear,160,2013-03-11 08:53:00
4:53 AM,57.0,52.0,83,29.64,10.0,Calm,Calm,-,N/A,,Overcast,0,2013-03-11 09:53:00
5:53 AM,57.0,51.1,81,29.65,10.0,Calm,Calm,-,N/A,,Overcast,0,2013-03-11 10:53:00
6:53 AM,57.0,51.1,81,29.66,10.0,Calm,Calm,-,N/A,,Overcast,0,2013-03-11 11:53:00
7:53 AM,57.0,52.0,83,29.64,10.0,SE,8.1,-,N/A,,Partly Cloudy,130,2013-03-11 12:53:00
8:53 AM,61.0,53.1,75,29.65,10.0,SSE,5.8,-,N/A,,Mostly Cloudy,160,2013-03-11 13:53:00
9:53 AM,64.0,55.9,75,29.62,10.0,SSE,13.8,19.6,N/A,,Clear,150,2013-03-11 14:53:00
10:53 AM,68.0,57.9,70,29.60,10.0,South,13.8,23.0,N/A,,Partly Cloudy,170,2013-03-11 15:53:00
11:53 AM,70.0,57.9,65,29.57,10.0,SSE,11.5,23.0,N/A,,Mostly Cloudy,160,2013-03-11 16:53:00
12:07 PM,69.8,57.2,64,29.88,10.0,SSE,13.8,26.5,N/A,,Mostly Cloudy,160,2013-03-11 17:07:00
12:40 PM,69.8,57.2,64,29.87,10.0,SSE,9.2,24.2,N/A,,Overcast,160,2013-03-11 17:40:00
12:53 PM,70.0,57.9,65,29.54,10.0,South,6.9,17.3,N/A,,Overcast,170,2013-03-11 17:53:00
1:53 PM,70.0,59.0,68,29.49,10.0,SSE,10.4,16.1,N/A,,Overcast,160,2013-03-11 18:53:00
2:51 PM,66.2,60.8,83,29.81,7.0,Variable,6.9,-,0.03,Rain,Light Rain,0,2013-03-11 19:51:00
2:53 PM,66.9,61.0,81,29.48,6.0,Variable,6.9,-,0.04,Rain,Light Rain,0,2013-03-11 19:53:00
3:00 PM,66.2,60.8,83,29.82,1.8,Variable,3.5,-,0.04,Rain,Heavy Rain,0,2013-03-11 20:00:00
3:30 PM,60.8,60.8,100,29.84,1.2,WNW,10.4,-,0.39,Rain,Heavy Rain,300,2013-03-11 20:30:00
3:51 PM,57.2,57.2,100,29.83,2.0,NNW,11.5,-,0.62,Rain,Heavy Rain,330,2013-03-11 20:51:00
3:53 PM,57.9,57.0,97,29.79,2.0,NNW,10.4,-,0.63,Rain,Heavy Rain,330,2013-03-11 20:53:00
4:06 PM,57.2,57.2,100,29.82,3.0,NNW,4.6,-,0.04,Rain,Rain,330,2013-03-11 21:06:00
4:14 PM,57.2,57.2,100,29.84,1.8,WNW,3.5,-,0.09,Rain,Heavy Rain,300,2013-03-11 21:14:00
4:32 PM,57.2,57.2,100,29.83,2.0,NNE,3.5,-,0.19,Rain,Rain,20,2013-03-11 21:32:00
4:38 PM,57.2,57.2,100,29.84,1.8,NNW,3.5,-,0.22,Rain,Heavy Rain,340,2013-03-11 21:38:00
4:53 PM,57.9,57.0,97,29.80,1.5,North,6.9,-,0.30,Rain,Heavy Rain,350,2013-03-11 21:53:00
5:03 PM,57.2,57.2,100,29.83,3.0,North,4.6,-,0.02,Rain,Rain,350,2013-03-11 22:03:00
5:26 PM,57.2,55.4,94,29.83,4.0,NNE,4.6,-,0.05,Rain,Light Rain,20,2013-03-11 22:26:00
5:53 PM,57.0,57.0,100,29.78,2.5,East,4.6,-,0.09,Rain,Light Rain,90,2013-03-11 22:53:00
6:09 PM,57.2,57.2,100,29.81,4.0,NE,3.5,-,0.01,Rain,Light Rain,40,2013-03-11 23:09:00
6:18 PM,57.2,57.2,100,29.82,2.5,Calm,Calm,-,0.05,Rain,Rain,0,2013-03-11 23:18:00
6:35 PM,57.2,57.2,100,29.83,3.0,WNW,5.8,-,0.08,Rain,Light Rain,300,2013-03-11 23:35:00
6:44 PM,57.2,57.2,100,29.83,3.0,WNW,3.5,-,0.09,Rain,Light Rain,300,2013-03-11 23:44:00
6:53 PM,57.0,57.0,100,29.80,7.0,WNW,4.6,-,0.09,Rain,Light Rain,300,2013-03-11 23:53:00
7:16 PM,57.2,55.4,94,29.83,2.5,NW,5.8,-,0.09,Rain,Heavy Rain,320,2013-03-12 00:16:00
7:24 PM,57.2,55.4,94,29.84,5.0,NW,3.5,-,0.10,Rain,Light Rain,320,2013-03-12 00:24:00
7:53 PM,57.0,55.9,96,29.80,10.0,NNW,5.8,-,0.10,Rain,Light Rain,330,2013-03-12 00:53:00
8:21 PM,57.2,55.4,94,29.85,5.0,WNW,5.8,-,0.02,Rain,Light Rain,300,2013-03-12 01:21:00
8:53 PM,55.9,55.0,97,29.82,3.0,NW,9.2,-,0.02,,Overcast,320,2013-03-12 01:53:00
9:05 PM,55.4,53.6,94,29.86,2.5,NW,12.7,20.7,0.00,Rain,Light Rain,320,2013-03-12 02:05:00
9:53 PM,52.0,51.1,97,29.83,10.0,NNW,11.5,19.6,0.00,,Overcast,330,2013-03-12 02:53:00
10:12 PM,51.8,48.2,88,29.89,10.0,NW,9.2,17.3,N/A,,Overcast,320,2013-03-12 03:12:00
10:53 PM,51.1,48.0,89,29.86,10.0,NW,9.2,-,N/A,,Overcast,320,2013-03-12 03:53:00
11:18 PM,50.0,48.2,94,29.91,10.0,NW,5.8,-,N/A,,Overcast,320,2013-03-12 04:18:00
11:53 PM,50.0,46.9,89,29.87,10.0,NNW,10.4,-,N/A,,Overcast,340,2013-03-12 04:53:00